Showing default

CATSAT, 60246

Orbit data source: Space-Track

CATSAT, 60246 is a payload satellite owned by U. Arizona (US) in SSO that was launched on Thu, 04 Jul 2024 UTC via an FIREFLY ALPHA launch vehicle from the Air Force Western Test Range (AFWTR). Payloads include a variety of satellites, spacecraft, and rockets equipped with specific instruments for various scientific and technological missions. These include communications satellites like Starlink; space stations such as the ISS; scientific satellites like the Hubble; Earth observation satellites from companies like Planet Labs, Umbra, and HawkEye 360; GPS; miniature CubeSats for education and research; and military/defense satellites.

Loading next visibility...
CATSAT details
Identifier
60246, 2024-125J
Orbit
SSO
Last TLE update14 hours ago
Origin
Flag of USU. Arizona (US)
ManufacturerU. Arizona
MissionOperational spacecraft
Bus & MotorCUBESAT 6U, Unknown motor
Mass12 kg wet, ~12 kg dry
Launch date (UTC)
2024-07-04 (6 months ago)
Launch vehicle
FIREFLY ALPHA
Launch site
Air Force Western Test Range (AFWTR)
Object type
Payload
Rocket body
Debris
Shape & HBRUnknown
Radar Cross SectionSmall (<0.1 m²)

Expand to show TLE details & history

TLE from 14 hours ago
0 CATSAT
1 60246U 24125J   24355.89289702  .00016299  00000-0  63621-3 0  9994
2 60246  97.2771 204.9370 0047329 342.4270  17.5328 15.24922248 23926
Epoch: 2024-12-20T21:25Z
Definitive object data (Epoch: 2024-12-20T21:25:46.302Z)
Latitude-0.00005°
Longitude153.5422°
Altitude463.126 km
Speed7.652 km/s
True Right ascension13h 39m 44s
True Declination0° 00' 00"
Sunlit
Object was in daylight at TLE epoch
Visualization TLE readout
Latitude51.86764°
Longitude144.81575°
Altitude489.254 km
Speed7.631 km/s
Apparent Right ascension18h 51m 35s
Apparent Declination25° 52' 24"
Sunlit
Object is in daylight
Visualization observer readout
Local Sidereal Time10:51:30
Azimuth51.327° ENE
Elevation-3.741°
Doppler factor1
Orbital elements
Apogee altitude520.469 km
Perigee altitude455.476 km
Semi-major axis6,866.11 km
Eccentricity0.0047329
Inclination97.2771°
RAAN204.937°
Arg. of periapsis342.427°
True anomaly17.69711°
Mean anomaly17.5328°
Eccentric anomaly17.61486°
Mean motion3.81485 °/min
BSTAR0.00063621
Orbital period94.37 mins
Loading maneuver chart data...
Loading historical data...
Loading historical data...
Loading historical data...
Loading historical data...
Loading historical data...
Loading historical data...
Loading historical data...

CATSAT Visibility forecast

Observer location: undefined°, undefined

Span
Click to sort rows by Start time (UTC) header in descending order
Start Az.
Max El. time (UTC)
Max El. Az.
Max El.
End time (UTC)
End Az.
4 mins2024-12-21 13:19:48.648Z108.23° ESE2024-12-21 13:21:48.648Z71.451° E16.516°2024-12-21 13:23:48.648Z32.814° NE
4 mins2024-12-21 14:53:48.648Z225.755° WSW2024-12-21 14:55:48.648Z278.022° WNW22.225°2024-12-21 14:57:48.648Z316.454° NNW
4 mins2024-12-22 02:21:48.648Z55.109° ENE2024-12-22 02:23:48.648Z102.597° ESE23.422°2024-12-22 02:25:48.648Z143.719° SSE
|